BREEZE-M DEB (TANK), 42936

Orbit data source: Space-Track

BREEZE-M DEB (TANK), 42936 is space debris in HEO originally from a launch on Mon, 11 Sep 2017 UTC launched from the Tyuratam Missile And Space Complex (TTMTR). Debris objects in space refer to the collection of defunct objects orbiting the Earth. Examples of debris include non-operational satellites, rocket bodies, and fragments generated from explosions, collisions, or faulty payload assembly.

Loading next visibility...
BREEZE-M DEB (TANK) details
Identifier
42936, 2017-053C
Orbit
HEO
Last TLE update21 hours ago
Origin
Flag of CISKhrunichev (CIS)
ManufacturerKhrunichev
MissionSpacecraft
Bus & MotorBRIZ TANK, Unknown motor
Mass~1,000 kg wet, 1,000 kg dry
Launch date (UTC)
2017-09-11 (7 years ago)
Launch vehicleUnknown
Launch site
Tyuratam Missile And Space Complex (TTMTR)
Object type
Payload
Rocket body
Debris
Shape & HBRTorus, 4 m
Radar Cross Section8.218 m², Large (>1 m²)

Expand to show TLE details & history

TLE from 21 hours ago
0 BREEZE-M DEB (TANK)
1 42936U 17053C   24346.01033015  .00009741  00000-0  14721-2 0  9990
2 42936  49.5563 357.5963 5148828 338.9549   5.8869  5.38282047139865
Epoch: 2024-12-11T00:14Z
Definitive object data (Epoch: 2024-12-11T00:14:52.524Z)
Latitude-0.0001°
Longitude-86.3283°
Altitude455.865 km
Speed9.364 km/s
True Right ascension23h 50m 24s
True Declination0° 00' 00"
Sunlit
Object was in daylight at TLE epoch
Visualization TLE readout
Latitude-25.52424°
Longitude116.90527°
Altitude8,006.029 km
Speed5.144 km/s
Apparent Right ascension12h 06m 24s
Apparent Declination-34° 59' 21"
Sunlit
Object is in daylight
Visualization observer readout
Local Sidereal Time20:03:07
Azimuth255.611° W
Elevation-42.399°
Doppler factor1
Orbital elements
Apogee altitude14,456.964 km
Perigee altitude293.974 km
Semi-major axis13,753.606 km
Eccentricity0.5148828
Inclination49.5563°
RAAN357.5963°
Arg. of periapsis338.9549°
True anomaly21.11456°
Mean anomaly5.8869°
Eccentric anomaly12.04114°
Mean motion1.34561 °/min
BSTAR0.0014721
Orbital period267.54 mins
Loading maneuver chart data...
Loading historical data...
Loading historical data...
Loading historical data...
Loading historical data...
Loading historical data...
Loading historical data...
Loading historical data...
Other satellites on launch #53 in the year 2017 (2017-09-11 UTC)

BREEZE-M DEB (TANK) Visibility forecast

Observer location: undefined°, undefined

Span
Click to sort rows by Start time (UTC) header in descending order
Start Az.
Max El. time (UTC)
Max El. Az.
Max El.
End time (UTC)
End Az.
38 mins2024-12-12 03:06:13.963Z200.024° SSW2024-12-12 03:12:13.963Z125.114° SE40.372°2024-12-12 03:44:13.963Z54.86° ENE
156 mins2024-12-12 07:45:13.963Z289.774° WNW2024-12-12 08:07:13.963Z14.276° NNE43.757°2024-12-12 10:21:13.963Z122.95° SE
162 mins2024-12-12 12:31:13.963Z305.331° NW2024-12-12 13:28:13.963Z254.32° W37.951°2024-12-12 15:13:13.963Z197.503° SSW
|